Regional Weather Roundup
Issued by NWS

Home | Current Version | Previous Version | Text Only | Print | Product List | Glossary Off
Versions: 1 2 3 4 5 6 7 8 9 10 11 12 13 14 15 16 17 18 19 20 21 22 23 24 25 26 27 28 29 30 31 32 33 34 35 36 37 38 39 40 41 42 43 44 45 46 47 48 49 50

000
ASUS43 KOAX 210810
RWRNE

WEATHER ROUNDUP FOR NEBRASKA
NATIONAL WEATHER SERVICE OMAHA NE
300 AM CDT THU AUG 21 2014

NOTES: SATELLITE DATA IS BEING USED TO AUGMENT CLOUD COVER ABOVE
       12000 FEET.
       "FAIR" INDICATES FEW OR NO CLOUDS BELOW 12,000 FEET WITH NO
       SIGNIFICANT WEATHER AND/OR OBSTRUCTIONS TO VISIBILITY.

  * THESE STATIONS DO NOT REPORT WEATHER SUCH AS RAIN...SNOW OR FOG.

NEZ001>004-019>022-054>056-210900-
NEBRASKA PANHANDLE

CITY           SKY/WX    TMP DP  RH WIND       PRES   REMARKS
SCOTTSBLUFF    CLEAR     66  52  60 N5        29.91R
ALLIANCE       PTCLDY    65  55  70 NW6       29.88R
CHADRON        CLEAR     59  51  75 E3        29.87S
KIMBALL        CLOUDY    64  55  75 W8        29.98R
SIDNEY         LGT RAIN  67  56  67 W13       29.95R
$$

NEZ057>060-069>072-079>082-210900-
SOUTHWEST NEBRASKA

CITY           SKY/WX    TMP DP  RH WIND       PRES   REMARKS
NORTH PLATTE   PTCLDY    66  62  87 SE5       29.82S
IMPERIAL       PTCLDY    67  63  87 E3        29.86S
LEXINGTON      CLOUDY    70  67  91 N6        29.82F
MCCOOK         MOCLDY    71  63  75 NE8       29.81S
OGALLALA       CLOUDY    66  62  86 E3        29.85R
$$

NEZ005>010-023>029-035>040-094-210900-
NORTH CENTRAL NEBRASKA

CITY           SKY/WX    TMP DP  RH WIND       PRES   REMARKS
VALENTINE      PTCLDY    66  61  84 SW6       29.79R
AINSWORTH      PTCLDY    73  62  66 W8        29.77F
BROKEN BOW     CLOUDY    72  63  73 SE5       29.78F
O`NEILL        CLOUDY    76  70  83 SW6       29.74R
ORD            LGT RAIN  74  63  68 SW9       29.78R
$$

NEZ041-046>049-061>064-073>077-083>087-210900-
SOUTH CENTRAL NEBRASKA

CITY           SKY/WX    TMP DP  RH WIND       PRES   REMARKS
GRAND ISLAND   CLOUDY    73  63  70 S20       29.79F
AURORA         TSTM      72  66  82 SW20G38   29.80F
HASTINGS       CLOUDY    68  60  75 E10       29.81F
HEBRON         MOCLDY    77  63  61 S9        29.79R
HOLDREGE       CLOUDY    72  68  86 NE6       29.80S
KEARNEY *      CLOUDY    70  61  73 E6        29.81R
YORK           CLOUDY    77 N/A N/A SW8       29.80R
$$

NEZ011>018-030>034-042>045-210900-
NORTHEAST NEBRASKA

CITY           SKY/WX    TMP DP  RH WIND       PRES   REMARKS
NORFOLK        CLOUDY    79  69  71 S15       29.72S
ALBION         LGT RAIN  76  68  76 S5        29.77R
BLAIR          MOCLDY    81  69  67 S14G20    29.77F
COLUMBUS *     CLOUDY    61 N/A N/A S14G20    29.77S
FREMONT        MOCLDY    81  68  65 S12G20    29.76R
TEKAMAH        MOCLDY    79  71  76 S10       29.75S
WAYNE          PTCLDY    75  72  90 S12       29.73R
$$

NEZ050>053-065>068-078-088>093-210900-
SOUTHEAST NEBRASKA

CITY           SKY/WX    TMP DP  RH WIND       PRES   REMARKS
LINCOLN        CLOUDY    82  65  56 S16G25    29.77S
OMAHA EPPLEY   MOCLDY    80  69  69 S15       29.77F
BEATRICE       CLOUDY    80  67  63 S18G25    29.80S
FALLS CITY     PTCLDY    79  69  71 S10       29.82S
NEBRASKA CITY  MOCLDY    78  66  66 S13       29.81S
PLATTSMOUTH    MOCLDY    78  68  69 S13       29.79F
$$

NEZ044-045-051>053-067-210900-
OMAHA AREA

CITY           SKY/WX    TMP DP  RH WIND       PRES   REMARKS
OMAHA EPPLEY   MOCLDY    80  69  69 S15       29.77F
BLAIR          MOCLDY    81  69  67 S14G20    29.77F
FREMONT        MOCLDY    81  68  65 S12G20    29.76R
MILLARD        MOCLDY    80  70  70 SE8       29.77S
OFFUTT AFB     MOCLDY    78  73  84 SE13      29.78S
PLATTSMOUTH    MOCLDY    78  68  69 S13       29.79F
WAHOO          FAIR      76  68  76 S5        29.77S
$$



USA.gov is the U.S. government's official web portal to all federal, state and local government web resources and services.